CW0617 Weather Reports


Display with metric or nautical units.
time (UTC)temp
F
wind
direction
speed
MPH
gust
MPH
rain 1hr
in
rain 24hr
in
rain mn
in
humidity
%
barometer
mb
20260906122705 62 51 2.0 5.0 0.00 0.00 0.00 94 1022.4
20260906122204 61 60 2.0 5.0 0.00 0.00 0.00 94 1022.4
20260906121704 61 59 3.0 5.0 0.00 0.00 0.00 94 1022.2
20260906121204 61 55 3.0 5.0 0.00 0.00 0.00 94 1022.2
20260906120704 61 52 2.0 3.0 0.00 0.00 0.00 94 1022.3
20260906120204 61 48 2.0 5.0 0.00 0.00 0.00 94 1022.1
20260906115704 61 43 3.0 5.0 0.00 0.00 0.00 93 1022.0
20260906115204 61 56 3.0 5.0 0.00 0.00 0.00 93 1021.9
20260906114704 61 51 3.0 6.0 0.00 0.00 0.00 93 1021.8
20260906114204 61 56 3.0 6.0 0.00 0.00 0.00 93 1021.7
20260906113704 61 49 5.0 6.0 0.00 0.00 0.00 93 1021.7
20260906113204 61 52 4.0 5.0 0.00 0.00 0.00 93 1021.7
20260906112704 61 46 3.0 5.0 0.00 0.00 0.00 93 1021.8
20260906111704 61 50 3.0 7.0 0.00 0.00 0.00 94 1021.7
20260906111204 61 48 3.0 7.0 0.00 0.00 0.00 94 1021.7
20260906110204 61 48 3.0 5.0 0.00 0.00 0.00 93 1021.6
20260906105204 61 56 3.0 5.0 0.00 0.00 0.00 94 1021.4
20260906104704 61 62 3.0 5.0 0.00 0.00 0.00 94 1021.2
20260906104204 61 67 3.0 5.0 0.00 0.00 0.00 94 1021.2
20260906103204 60 49 3.0 5.0 0.00 0.00 0.00 93 1021.4
20260906102204 60 42 3.0 3.0 0.00 0.00 0.00 92 1021.4
20260906101704 61 57 2.0 3.0 0.00 0.00 0.00 93 1021.4
20260906100204 61 57 2.0 3.0 0.00 0.00 0.00 93 1021.3
20260906095204 61 64 2.0 3.0 0.00 0.00 0.00 93 1021.1
20260906094704 61 50 3.0 3.0 0.00 0.00 0.00 93 1021.1
20260906094205 62 46 2.0 3.0 0.00 0.00 0.00 93 1021.2
20260906093204 62 46 2.0 3.0 0.00 0.00 0.00 93 1021.3
20260906092704 62 46 3.0 3.0 0.00 0.00 0.00 93 1021.3
20260906092204 62 57 2.0 3.0 0.00 0.00 0.00 93 1021.2
20260906091204 62 30 3.0 3.0 0.00 0.00 0.00 93 1021.4
20260906090704 62 38 3.0 3.0 0.00 0.00 0.00 93 1021.2
20260906085704 62 38 3.0 3.0 0.00 0.00 0.00 93 1021.2
20260906084704 62 25 3.0 3.0 0.00 0.00 0.00 92 1021.2
20260906084204 63 42 2.0 3.0 0.00 0.00 0.00 93 1021.1
20260906083704 63 42 2.0 3.0 0.00 0.00 0.00 93 1021.1
20260906083204 63 42 2.0 3.0 0.00 0.00 0.00 93 1021.0
20260906082704 63 42 2.0 3.0 0.00 0.00 0.00 93 1020.9
20260906082204 63 42 2.0 3.0 0.00 0.00 0.00 93 1020.8
20260906081704 64 36 2.0 3.0 0.00 0.00 0.00 93 1020.9
20260906081204 64 53 2.0 5.0 0.00 0.00 0.00 94 1021.0
20260906080704 64 38 2.0 5.0 0.00 0.00 0.00 94 1021.0
20260906080204 64 34 2.0 3.0 0.00 0.00 0.00 93 1021.2
20260906075704 64 39 2.0 3.0 0.00 0.00 0.00 94 1021.1
20260906075204 64 39 2.0 3.0 0.00 0.00 0.00 93 1020.9
20260906074704 64 39 2.0 3.0 0.00 0.00 0.00 94 1020.9
20260906074204 64 39 2.0 3.0 0.00 0.00 0.00 93 1021.0
20260906073704 64 39 2.0 3.0 0.00 0.00 0.00 93 1021.0
20260906073204 64 55 2.0 3.0 0.00 0.00 0.00 93 1021.1
20260906072204 64 82 2.0 3.0 0.00 0.00 0.00 93 1020.9
20260906071704 64 84 3.0 6.0 0.00 0.00 0.00 94 1020.8
20260906071204 64 82 2.0 6.0 0.00 0.00 0.00 94 1021.0
20260906070205 63 73 3.0 3.0 0.00 0.00 0.00 94 1021.1
20260906065704 63 76 3.0 3.0 0.00 0.00 0.00 94 1021.1
20260906064704 63 319 1.0 2.0 0.00 0.00 0.00 93 1021.3
20260906064204 63 309 1.0 2.0 0.00 0.00 0.00 93 1021.3
20260906063204 63 309 0.0 3.0 0.00 0.00 0.00 93 1021.2
20260906062204 63 309 2.0 3.0 0.00 0.00 0.00 92 1021.3
20260906061704 63 284 2.0 3.0 0.00 0.00 0.00 92 1021.2
20260906061204 63 194 2.0 3.0 0.00 0.00 0.00 93 1021.1
20260906060704 63 194 2.0 3.0 0.00 0.00 0.00 93 1021.0
20260906055704 63 194 0.0 1.0 0.00 0.00 0.00 92 1020.7
20260906055204 63 194 0.0 2.0 0.00 0.00 0.00 92 1020.7
20260906054704 64 194 1.0 2.0 0.00 0.00 0.00 92 1020.7
20260906054204 64 194 1.0 2.0 0.00 0.00 0.00 92 1020.7
20260906053704 64 194 1.0 2.0 0.00 0.00 0.00 93 1020.8
20260906053204 64 194 1.0 2.0 0.00 0.00 0.00 93 1020.8
20260906052204 64 143 0.0 1.0 0.00 0.00 0.00 92 1020.6
20260906051704 64 143 0.0 2.0 0.00 0.00 0.00 92 1020.5
20260906051204 64 143 0.0 3.0 0.00 0.00 0.00 92 1020.5
20260906050704 64 143 2.0 3.0 0.00 0.00 0.00 92 1020.5
20260906050204 64 139 2.0 3.0 0.00 0.00 0.00 92 1020.6
20260906045705 65 121 1.0 2.0 0.00 0.00 0.00 92 1020.7
20260906045205 65 121 0.0 2.0 0.00 0.00 0.00 92 1020.7
20260906044705 65 121 1.0 2.0 0.00 0.00 0.00 92 1020.6
20260906044204 65 121 1.0 2.0 0.00 0.00 0.00 92 1020.6
20260906043704 65 123 1.0 2.0 0.00 0.00 0.00 92 1020.5
20260906043205 65 121 1.0 3.0 0.00 0.00 0.00 92 1020.5
20260906042705 65 121 1.0 3.0 0.00 0.00 0.00 92 1020.5
20260906042204 66 88 1.0 3.0 0.00 0.00 0.00 92 1020.4
20260906041704 66 88 2.0 3.0 0.00 0.00 0.00 92 1020.4
20260906041204 66 87 2.0 7.0 0.00 0.00 0.00 92 1020.3
20260906040704 66 105 1.0 7.0 0.00 0.00 0.00 92 1020.3
20260906040204 66 81 2.0 7.0 0.00 0.00 0.00 92 1020.2
20260906034704 66 85 2.0 6.0 0.00 0.00 0.00 92 1020.0
20260906034204 66 90 2.0 6.0 0.00 0.00 0.00 92 1019.9
20260906033704 66 89 2.0 5.0 0.00 0.00 0.00 91 1019.7
20260906032704 66 82 2.0 5.0 0.00 0.00 0.00 91 1019.8
20260906032204 66 80 3.0 3.0 0.00 0.00 0.00 91 1019.9
20260906031204 67 84 1.0 3.0 0.00 0.00 0.00 91 1019.9
20260906030704 67 84 2.0 3.0 0.00 0.00 0.00 91 1019.8
20260906024704 67 61 2.0 3.0 0.00 0.00 0.00 91 1019.5
20260906024204 67 61 2.0 3.0 0.00 0.00 0.00 91 1019.5
20260906023203 67 64 2.0 3.0 0.00 0.00 0.00 91 1019.4
20260906022204 67 64 2.0 5.0 0.00 0.00 0.00 90 1019.5
20260906021704 67 56 3.0 5.0 0.00 0.00 0.00 90 1019.3
20260906021204 67 54 3.0 3.0 0.00 0.00 0.00 90 1019.3
20260906020704 67 67 3.0 3.0 0.00 0.00 0.00 90 1019.2
20260906020204 67 84 1.0 3.0 0.00 0.00 0.00 90 1019.2
20260906015704 68 84 1.0 3.0 0.00 0.00 0.00 89 1019.1
20260906015204 68 77 2.0 5.0 0.00 0.00 0.00 89 1019.1
20260906014704 68 76 3.0 5.0 0.00 0.00 0.00 89 1019.0
20260906013704 68 119 1.0 3.0 0.00 0.00 0.00 88 1019.1
20260906013204 68 119 1.0 3.0 0.00 0.00 0.00 88 1019.1
20260906012704 69 119 2.0 3.0 0.00 0.00 0.00 87 1019.0
20260906012204 69 119 1.0 2.0 0.00 0.00 0.00 87 1019.0
20260906011704 69 119 0.0 2.0 0.00 0.00 0.00 86 1019.0
20260906011205 69 119 0.0 2.0 0.00 0.00 0.00 86 1018.8
20260906010704 70 119 1.0 3.0 0.00 0.00 0.00 86 1018.8
20260906010204 70 119 1.0 3.0 0.00 0.00 0.00 85 1018.7
20260906005704 70 97 1.0 3.0 0.00 0.00 0.00 85 1018.7
20260906005204 71 116 1.0 3.0 0.00 0.00 0.00 84 1018.7
20260906004704 71 94 1.0 3.0 0.00 0.00 0.00 84 1018.7
20260906004204 71 118 1.0 3.0 0.00 0.00 0.00 84 1018.6
20260906003204 72 96 2.0 3.0 0.00 0.00 0.00 83 1018.5
20260906002704 72 120 2.0 3.0 0.00 0.00 0.00 83 1018.6
20260906001204 73 91 1.0 3.0 0.00 0.08 0.00 81 1018.7
20260906000704 73 83 1.0 6.0 0.00 0.19 0.00 81 1018.7
20260906000205 73 89 2.0 6.0 0.00 0.19 0.00 80 1018.7
20260905235704 74 76 2.0 5.0 0.00 0.19 0.00 80 1018.8
20260905235204 74 97 2.0 7.0 0.00 0.19 0.00 80 1018.9
20260905234704 74 123 2.0 7.0 0.00 0.19 0.00 80 1018.9
20260905234203 74 107 2.0 7.0 0.00 0.19 0.00 81 1018.9
20260905233704 74 102 3.0 7.0 0.00 0.19 0.00 80 1018.9
20260905232704 74 78 2.0 7.0 0.00 0.19 0.00 80 1019.0
20260905232204 74 101 4.0 7.0 0.00 0.19 0.00 80 1019.0
20260905231704 74 102 3.0 7.0 0.00 0.19 0.00 80 1018.9
20260905231204 74 92 3.0 7.0 0.00 0.19 0.00 79 1018.9
20260905230704 74 108 2.0 7.0 0.00 0.19 0.00 80 1018.9
20260905225704 74 86 4.0 7.0 0.00 0.19 0.00 79 1018.9
20260905225204 74 84 2.0 6.0 0.00 0.19 0.00 78 1019.0
20260905224704 74 51 2.0 6.0 0.00 0.19 0.00 79 1019.1
20260905224204 74 56 2.0 6.0 0.00 0.19 0.00 79 1019.1
20260905223705 74 73 2.0 3.0 0.00 0.19 0.00 80 1019.2
20260905223204 74 50 1.0 8.0 0.00 0.19 0.00 81 1019.1
20260905222704 74 112 2.0 8.0 0.00 0.19 0.00 81 1019.1
20260905222204 74 85 5.0 9.0 0.00 0.19 0.00 80 1019.0
20260905221704 74 120 4.0 9.0 0.00 0.19 0.00 80 1019.1
20260905221204 74 76 2.0 9.0 0.00 0.19 0.00 81 1019.1
20260905220705 74 107 3.0 9.0 0.00 0.19 0.00 80 1019.2
20260905220204 74 95 4.0 9.0 0.00 0.19 0.00 80 1019.2
20260905215704 74 34 4.0 9.0 0.00 0.19 0.00 81 1019.2
20260905215204 74 51 5.0 12.0 0.00 0.19 0.00 80 1019.2
20260905214705 74 83 5.0 12.0 0.00 0.19 0.00 80 1019.2
20260905214204 74 66 5.0 12.0 0.00 0.19 0.00 80 1018.9
20260905213704 74 41 4.0 13.0 0.00 0.19 0.00 79 1019.0
20260905212704 75 60 7.0 13.0 0.00 0.19 0.00 79 1018.9
20260905212204 75 55 7.0 12.0 0.00 0.19 0.00 79 1018.9
20260905211704 75 55 7.0 14.0 0.00 0.19 0.00 79 1018.9
20260905211204 75 55 6.0 14.0 0.00 0.19 0.00 79 1018.8
20260905210705 75 84 8.0 16.0 0.00 0.19 0.00 79 1018.7
20260905210205 75 59 10.0 16.0 0.00 0.19 0.00 78 1018.8
20260905205205 76 66 8.0 15.0 0.00 0.19 0.00 77 1018.8
20260905204704 77 49 6.0 13.0 0.00 0.19 0.00 78 1018.9
20260905204204 77 94 5.0 12.0 0.00 0.19 0.00 78 1019.0
20260905203704 77 66 5.0 13.0 0.00 0.19 0.00 79 1019.1
20260905203204 77 76 8.0 13.0 0.00 0.19 0.00 78 1019.0
20260905202704 77 83 5.0 12.0 0.00 0.19 0.00 79 1019.2
20260905202204 76 61 7.0 12.0 0.00 0.19 0.00 80 1019.2
20260905201704 76 39 7.0 12.0 0.00 0.19 0.00 80 1019.0
20260905201204 76 45 8.0 12.0 0.00 0.19 0.00 81 1018.9
20260905200704 75 61 6.0 12.0 0.00 0.19 0.00 82 1018.9
20260905200204 75 73 5.0 12.0 0.00 0.19 0.00 82 1018.9
20260905195704 75 67 5.0 12.0 0.00 0.19 0.00 81 1019.0
20260905194704 75 61 5.0 9.0 0.00 0.19 0.00 82 1019.1
20260905193204 75 83 5.0 12.0 0.00 0.19 0.00 82 1019.2
20260905192204 75 21 5.0 10.0 0.00 0.19 0.00 82 1019.0
20260905190705 75 34 6.0 10.0 0.00 0.19 0.00 82 1019.2
20260905190205 75 32 5.0 10.0 0.00 0.19 0.00 82 1019.1
20260905185704 75 25 6.0 10.0 0.00 0.19 0.00 82 1019.1
20260905185204 75 55 6.0 10.0 0.00 0.19 0.00 82 1019.1
20260905184704 75 48 3.0 12.0 0.00 0.19 0.00 82 1019.0
20260905184204 75 60 3.0 12.0 0.00 0.19 0.00 82 1019.0
20260905183204 75 26 3.0 12.0 0.00 0.19 0.00 82 1019.1
20260905182704 75 31 5.0 10.0 0.00 0.19 0.00 82 1018.9
20260905182204 75 47 5.0 9.0 0.00 0.19 0.00 81 1019.0
20260905181704 75 46 3.0 8.0 0.00 0.19 0.00 82 1019.1
20260905181204 75 74 3.0 9.0 0.00 0.19 0.00 81 1019.0
20260905180704 75 61 5.0 9.0 0.00 0.19 0.00 82 1019.1
20260905180204 75 32 5.0 8.0 0.00 0.19 0.00 82 1019.1
20260905175704 75 35 4.0 8.0 0.00 0.19 0.00 82 1019.2
20260905175204 75 43 3.0 8.0 0.00 0.19 0.00 81 1019.3
20260905174204 75 23 6.0 9.0 0.00 0.19 0.00 81 1019.4
20260905173703 76 42 6.0 9.0 0.00 0.19 0.00 80 1019.4
20260905173205 76 43 4.0 7.0 0.00 0.19 0.00 80 1019.5
20260905172704 75 52 2.0 7.0 0.00 0.19 0.00 82 1019.5
20260905171204 75 40 2.0 6.0 0.00 0.19 0.00 82 1019.3
20260905170703 75 76 1.0 7.0 0.00 0.19 0.00 83 1019.3
20260905170204 74 92 2.0 7.0 0.00 0.19 0.00 83 1019.3
20260905165704 74 80 1.0 10.0 0.00 0.19 0.00 85 1019.4
20260905165204 74 42 5.0 10.0 0.00 0.19 0.00 85 1019.4
20260905164704 73 38 2.0 7.0 0.00 0.19 0.00 85 1019.4
20260905164204 73 66 3.0 7.0 0.00 0.19 0.00 85 1019.4
20260905163204 73 22 4.0 9.0 0.00 0.19 0.00 86 1019.3
20260905162704 73 84 6.0 9.0 0.00 0.19 0.00 87 1019.4
20260905161704 72 73 7.0 12.0 0.00 0.19 0.00 87 1019.3
20260905161204 72 67 5.0 12.0 0.00 0.19 0.00 88 1019.4
20260905160704 72 82 6.0 12.0 0.00 0.19 0.00 88 1019.4
20260905160204 72 61 7.0 12.0 0.00 0.19 0.00 88 1019.4
20260905155704 72 78 5.0 12.0 0.00 0.19 0.00 88 1019.4
20260905155204 72 72 8.0 13.0 0.00 0.19 0.00 87 1019.4
20260905154704 72 79 7.0 13.0 0.00 0.19 0.00 88 1019.4
20260905154204 71 54 8.0 13.0 0.00 0.19 0.00 88 1019.3
20260905153704 71 63 6.0 12.0 0.00 0.19 0.00 88 1019.2
20260905153204 71 70 6.0 10.0 0.00 0.19 0.00 88 1019.2
20260905152704 71 62 5.0 12.0 0.00 0.19 0.00 88 1019.3
20260905152204 71 54 7.0 12.0 0.00 0.19 0.00 89 1019.1
20260905151704 71 55 7.0 12.0 0.00 0.19 0.00 89 1019.1
20260905151204 71 55 6.0 12.0 0.00 0.19 0.00 89 1019.1
20260905150703 71 61 7.0 12.0 0.00 0.19 0.00 89 1019.0
20260905150204 71 67 6.0 12.0 0.00 0.19 0.00 89 1019.0
20260905145704 71 85 6.0 12.0 0.00 0.19 0.00 89 1019.0
20260905145204 71 55 5.0 12.0 0.00 0.19 0.00 89 1018.9
20260905144705 70 66 6.0 12.0 0.00 0.19 0.00 90 1018.7
20260905144204 70 61 7.0 12.0 0.00 0.19 0.00 90 1018.8
20260905143704 70 66 5.0 9.0 0.00 0.19 0.00 91 1018.8
20260905143204 70 69 4.0 12.0 0.00 0.19 0.00 91 1018.8
20260905142704 70 58 5.0 12.0 0.00 0.19 0.00 91 1018.7
20260905142204 70 46 4.0 12.0 0.00 0.19 0.00 91 1018.7
20260905141204 70 66 6.0 10.0 0.00 0.19 0.00 92 1018.6
20260905140704 69 38 5.0 14.0 0.00 0.19 0.00 92 1018.5
20260905135704 69 51 8.0 14.0 0.00 0.19 0.00 92 1018.3
20260905135204 69 48 6.0 12.0 0.00 0.19 0.00 92 1018.2
20260905134704 69 56 5.0 12.0 0.00 0.19 0.00 93 1018.3
20260905134204 69 56 6.0 12.0 0.00 0.19 0.00 93 1018.3
20260905133705 69 61 7.0 12.0 0.00 0.19 0.00 93 1018.3
20260905132204 68 70 6.0 12.0 0.00 0.19 0.00 93 1018.2
20260905131704 68 59 7.0 12.0 0.00 0.19 0.00 93 1018.4
20260905131204 68 52 5.0 9.0 0.00 0.19 0.00 94 1018.6
20260905130704 68 55 3.0 10.0 0.00 0.19 0.00 93 1018.7
20260905130203 68 65 6.0 10.0 0.00 0.19 0.00 93 1018.6
20260905125704 68 54 3.0 9.0 0.00 0.19 0.00 93 1018.6
20260905125204 68 65 6.0 12.0 0.00 0.19 0.00 94 1018.5
20260905124704 68 61 7.0 12.0 0.00 0.19 0.00 94 1018.5
20260905124204 68 64 6.0 12.0 0.00 0.19 0.00 94 1018.5
20260905123704 68 72 5.0 8.0 0.00 0.19 0.00 94 1018.7
20260905123204 68 87 3.0 9.0 0.00 0.19 0.00 94 1018.6